Flag for U.S.A. Weather past 2 weeks in San Diego, California, U.S.A.

Now
64 °F

Partly sunny.


Feels Like: 64 °F
Forecast: 60 / 73 °F
Wind: 3 mph from West

Location: San Diego - North Island

Current Time: Mar 29, 2015 at 7:44:00 PM

Latest Report: Mar 29, 2015 at 6:52 PM


Visibility: 9 mi

Pressure: 29.98 "Hg

Humidity: 81%

Dew point: 58 °F

Location of San DiegoLocation

Historic Weather in San Diego — Graph

°F

San Diego temperature yesterday

Maximum temperature yesterday: 69 °F (at 10:52 AM)
Minimum temperature yesterday: 60 °F (at 6:52 AM)
Average temperature yesterday: 65 °F

Past Weeks' High & Low Weather Summary

 TemperatureHumidityPressure
High85 °F (Mar 15, 11:52 AM)100% (Mar 27, 10:04 PM)30.19 "Hg (Mar 27, 10:04 PM)
Low53 °F (Mar 24, 6:52 AM)16% (Mar 16, 1:52 PM)29.86 "Hg (Mar 16, 4:52 PM)
Average66 °F69%30.02 "Hg
* Reported Mar 14 5:52 PM — Mar 29 5:52 PM, San Diego, Weather by CustomWeather, © 2015

Note: Actual official high and low records may vary slightly from our data, if they occured in-between our weather recording intervals... More about our weather records

Advertising

San Diego weather history for previous 24 hours

 ConditionsComfort  
Time TempWeatherWind HumidityBarometerVisibility
5:52 PM
Sun, Mar 29
66 °FPartly sunny.6 mph75%29.98 "Hg10 mi
4:52 PM66 °FPartly sunny.7 mph78%29.98 "Hg10 mi
3:52 PM69 °FPartly sunny.8 mph68%29.98 "Hg10 mi
2:52 PM69 °FScattered clouds.9 mph68%29.99 "Hg10 mi
1:52 PM70 °FScattered clouds.7 mph64%30.01 "Hg10 mi
12:52 PM68 °FScattered clouds.7 mph70%30.03 "Hg10 mi
11:52 AM68 °FScattered clouds.10 mph70%30.04 "Hg10 mi
10:52 AM65 °FPartly sunny.10 mph78%30.05 "Hg10 mi
9:52 AM65 °FScattered clouds.3 mph81%30.04 "Hg10 mi
8:52 AM64 °FPartly sunny.No wind81%30.03 "Hg10 mi
7:52 AM62 °FPartly sunny.7 mph83%30.04 "Hg10 mi
6:57 AM61 °FOvercast.6 mph87%30.05 "Hg10 mi
6:52 AM61 °FOvercast.7 mph87%30.05 "Hg10 mi
5:52 AM61 °FLow clouds.6 mph90%30.03 "Hg10 mi
4:52 AM61 °FLow clouds.6 mph90%30.02 "Hg9 mi
3:52 AM61 °FPassing clouds.3 mph93%30.01 "Hg9 mi
2:52 AM62 °FClear.6 mph90%30.02 "Hg9 mi
1:52 AM62 °FClear.6 mph93%30.03 "Hg9 mi
12:52 AM62 °FClear.6 mph93%30.04 "Hg8 mi
11:52 PM
Sat, Mar 28
62 °FPassing clouds.No wind90%30.04 "Hg9 mi
10:52 PM64 °FPassing clouds.5 mph87%30.04 "Hg10 mi
9:52 PM64 °FPassing clouds.6 mph87%30.04 "Hg10 mi
8:52 PM64 °FPassing clouds.10 mph87%30.03 "Hg10 mi
7:52 PM64 °FPartly sunny.9 mph87%30.02 "Hg10 mi
Weather by CustomWeather, © 2015

See weather overviewHow to use our weather pages